HAZ383 ZBTJ-RJTT

Flight info

Callsign HAZ383
Flight time N/A
Altitude 41100
Route MUGLO1T MUGLO W34 ANRAT A326 DONVO G597 AGAVO/N0492F410 Y644 EGOBA G597 LANAT Y71 XAC
Aircraft A359/H-SDE2E3GHIJ3J4J5LM1ORWXY/LB1D1

Departure

Time 2026-04-30 12:52
Airport Tianjin Binhai International Airport (ZBTJ)

Arrival

Time N/A
Airport Tokyo Haneda International Airport (RJTT)
Time Latitude Longitude Altitude Speed Heading
2026-04-30 12:25 39.12564 117.35140 25 ft 0 kts 94°
2026-04-30 12:41 39.12565 117.35125 26 ft 2 kts 89°
2026-04-30 12:41 39.12565 117.35123 26 ft 0 kts 90°
2026-04-30 12:42 39.12564 117.35106 27 ft 2 kts 85°
2026-04-30 12:42 39.12562 117.35085 30 ft 2 kts 77°
2026-04-30 12:42 39.12554 117.35058 29 ft 2 kts 59°
2026-04-30 12:43 39.12548 117.35046 31 ft 2 kts 47°
2026-04-30 12:43 39.12535 117.35033 28 ft 2 kts 27°
2026-04-30 12:43 39.12520 117.35026 31 ft 2 kts 10°
2026-04-30 12:43 39.12511 117.35024 31 ft 0 kts
2026-04-30 12:45 39.12516 117.35025 31 ft 5 kts
2026-04-30 12:45 39.12562 117.35028 29 ft 8 kts
2026-04-30 12:45 39.12624 117.35033 30 ft 10 kts
2026-04-30 12:46 39.12702 117.35039 28 ft 12 kts
2026-04-30 12:46 39.12782 117.35018 29 ft 12 kts 317°
2026-04-30 12:46 39.12814 117.34917 25 ft 13 kts 269°
2026-04-30 12:46 39.12784 117.34813 30 ft 13 kts 245°
2026-04-30 12:47 39.12750 117.34696 28 ft 14 kts 270°
2026-04-30 12:47 39.12786 117.34643 28 ft 7 kts 339°
2026-04-30 12:47 39.12842 117.34616 28 ft 11 kts 339°
2026-04-30 12:47 39.12925 117.34573 28 ft 15 kts 336°
2026-04-30 12:48 39.13034 117.34509 30 ft 19 kts 335°
2026-04-30 12:48 39.13169 117.34429 28 ft 23 kts 335°
2026-04-30 12:48 39.13321 117.34339 30 ft 26 kts 335°
2026-04-30 12:48 39.13489 117.34236 29 ft 27 kts 335°
2026-04-30 12:49 39.13664 117.34131 30 ft 28 kts 335°
2026-04-30 12:49 39.13841 117.34018 31 ft 28 kts 332°
2026-04-30 12:49 39.14009 117.33906 30 ft 25 kts 333°
2026-04-30 12:49 39.14097 117.33831 28 ft 12 kts 304°
2026-04-30 12:50 39.14098 117.33762 27 ft 5 kts 250°
2026-04-30 12:50 39.14081 117.33707 31 ft 8 kts 246°
2026-04-30 12:50 39.14044 117.33650 28 ft 9 kts 202°
2026-04-30 12:50 39.13995 117.33663 31 ft 0 kts 154°
2026-04-30 12:52 39.13919 117.33710 29 ft 42 kts 154°
2026-04-30 12:52 39.13439 117.34001 29 ft 109 kts 154°
2026-04-30 12:52 39.12585 117.34523 69 ft 157 kts 155°
2026-04-30 12:52 39.11590 117.35136 694 ft 157 kts 156°
2026-04-30 12:53 39.10617 117.35745 1390 ft 159 kts 160°
2026-04-30 12:53 39.09564 117.36389 1621 ft 177 kts 160°
2026-04-30 12:53 39.08386 117.37104 1813 ft 197 kts 159°
2026-04-30 12:53 39.07086 117.37900 2037 ft 216 kts 159°
2026-04-30 12:54 39.05674 117.38768 2243 ft 237 kts 158°
2026-04-30 12:54 39.04119 117.39726 2513 ft 256 kts 158°
2026-04-30 12:54 39.02492 117.40732 3059 ft 263 kts 157°
2026-04-30 12:54 39.00827 117.41762 3617 ft 268 kts 156°
2026-04-30 12:55 38.99142 117.42845 4187 ft 274 kts 150°
2026-04-30 12:55 38.97706 117.44447 4754 ft 276 kts 124°
2026-04-30 12:55 38.96998 117.46697 5355 ft 272 kts 95°
2026-04-30 12:55 38.97068 117.49103 5996 ft 270 kts 79°
2026-04-30 12:56 38.97377 117.51483 6618 ft 271 kts 77°
2026-04-30 12:56 38.97702 117.53881 7202 ft 274 kts 77°
2026-04-30 12:56 38.98019 117.56304 7802 ft 276 kts 77°
2026-04-30 12:56 38.98329 117.58749 8408 ft 278 kts 77°
2026-04-30 12:57 38.98631 117.61181 9025 ft 281 kts 76°
2026-04-30 12:57 38.98936 117.63670 9646 ft 283 kts 76°
2026-04-30 12:57 38.99244 117.66183 10157 ft 289 kts 76°
2026-04-30 12:57 38.99567 117.68805 10392 ft 305 kts 76°
2026-04-30 12:58 39.00002 117.71530 10602 ft 318 kts 71°
2026-04-30 12:58 39.00603 117.74326 10801 ft 331 kts 70°
2026-04-30 12:58 39.01255 117.77227 11026 ft 344 kts 70°
2026-04-30 12:58 39.01913 117.80179 11399 ft 350 kts 70°
2026-04-30 12:59 39.02584 117.83204 11882 ft 353 kts 70°
2026-04-30 12:59 39.03256 117.86250 12371 ft 356 kts 70°
2026-04-30 12:59 39.03935 117.89328 12847 ft 359 kts 70°
2026-04-30 12:59 39.04615 117.92421 13336 ft 361 kts 70°
2026-04-30 13:00 39.05302 117.95546 13806 ft 364 kts 70°
2026-04-30 13:00 39.05992 117.98688 14231 ft 366 kts 70°
2026-04-30 13:00 39.06604 118.01886 14654 ft 372 kts 76°
2026-04-30 13:00 39.06716 118.05244 15094 ft 381 kts 90°
2026-04-30 13:01 39.06395 118.08650 15525 ft 386 kts 95°
2026-04-30 13:01 39.05893 118.12063 15952 ft 390 kts 97°
2026-04-30 13:01 39.05307 118.15482 16394 ft 393 kts 98°
2026-04-30 13:01 39.04696 118.18924 16837 ft 395 kts 98°
2026-04-30 13:02 39.04090 118.22384 17275 ft 398 kts 98°
2026-04-30 13:02 39.03499 118.25870 17711 ft 400 kts 97°
2026-04-30 13:02 39.02920 118.29381 18155 ft 402 kts 97°
2026-04-30 13:02 39.02348 118.32915 18532 ft 405 kts 97°
2026-04-30 13:03 39.01780 118.36467 18899 ft 407 kts 97°
2026-04-30 13:03 39.01209 118.40043 19269 ft 409 kts 97°
2026-04-30 13:03 39.00634 118.43638 19631 ft 412 kts 97°
2026-04-30 13:03 39.00053 118.47257 19996 ft 414 kts 97°
2026-04-30 13:04 38.99469 118.50889 20358 ft 416 kts 97°
2026-04-30 13:04 38.98882 118.54546 20714 ft 419 kts 97°
2026-04-30 13:04 38.98287 118.58221 21080 ft 421 kts 97°
2026-04-30 13:04 38.97687 118.61907 21438 ft 423 kts 97°
2026-04-30 13:05 38.97081 118.65618 21790 ft 425 kts 97°
2026-04-30 13:05 38.96472 118.69343 22140 ft 427 kts 97°
2026-04-30 13:05 38.95858 118.73091 22485 ft 429 kts 97°
2026-04-30 13:06 38.94628 118.80585 23169 ft 434 kts 97°
2026-04-30 13:06 38.94004 118.84381 23497 ft 436 kts 97°
2026-04-30 13:06 38.93376 118.88190 23777 ft 438 kts 97°
2026-04-30 13:06 38.92745 118.92008 24060 ft 439 kts 97°
2026-04-30 13:07 38.92108 118.95851 24342 ft 440 kts 97°
2026-04-30 13:07 38.91468 118.99706 24634 ft 442 kts 96°
2026-04-30 13:07 38.90827 119.03565 24915 ft 443 kts 96°
2026-04-30 13:07 38.90185 119.07443 25196 ft 445 kts 96°
2026-04-30 13:08 38.89535 119.11334 25472 ft 447 kts 96°
2026-04-30 13:08 38.88879 119.15241 25767 ft 448 kts 96°
2026-04-30 13:08 38.88219 119.19158 26067 ft 450 kts 96°
2026-04-30 13:08 38.87556 119.23085 26364 ft 451 kts 96°
2026-04-30 13:09 38.86890 119.27030 26661 ft 453 kts 96°
2026-04-30 13:09 38.86220 119.30992 26966 ft 455 kts 96°
2026-04-30 13:09 38.85547 119.34966 27287 ft 457 kts 96°
2026-04-30 13:09 38.84868 119.38964 27613 ft 459 kts 96°
2026-04-30 13:10 38.84186 119.42976 27933 ft 462 kts 96°
2026-04-30 13:10 38.83498 119.47010 28271 ft 464 kts 95°
2026-04-30 13:10 38.82807 119.51057 28598 ft 466 kts 95°
2026-04-30 13:10 38.82110 119.55126 28933 ft 468 kts 95°
2026-04-30 13:11 38.81410 119.59208 29277 ft 471 kts 95°
2026-04-30 13:11 38.80703 119.63318 29604 ft 473 kts 95°
2026-04-30 13:11 38.79991 119.67448 29943 ft 476 kts 95°
2026-04-30 13:11 38.79280 119.71560 30233 ft 478 kts 95°
2026-04-30 13:12 38.78505 119.75725 30511 ft 485 kts 99°
2026-04-30 13:12 38.77337 119.79821 30796 ft 495 kts 108°
2026-04-30 13:12 38.75638 119.83715 31095 ft 507 kts 118°
2026-04-30 13:13 38.70793 119.90463 31625 ft 520 kts 130°
2026-04-30 13:13 38.68397 119.93912 31872 ft 517 kts 122°
2026-04-30 13:13 38.65003 120.01845 32365 ft 503 kts 102°
2026-04-30 13:14 38.64069 120.06131 32612 ft 500 kts 97°
2026-04-30 13:14 38.63294 120.10468 32881 ft 500 kts 95°
2026-04-30 13:14 38.61923 120.19131 33409 ft 501 kts 94°
2026-04-30 13:15 38.61243 120.23499 33782 ft 500 kts 95°
2026-04-30 13:15 38.59864 120.32202 34400 ft 499 kts 95°
2026-04-30 13:15 38.59165 120.36547 34651 ft 500 kts 95°
2026-04-30 13:16 38.58459 120.40893 34896 ft 500 kts 96°
2026-04-30 13:16 38.57748 120.45246 35155 ft 500 kts 96°
2026-04-30 13:16 38.57033 120.49595 35413 ft 500 kts 96°
2026-04-30 13:17 38.55603 120.58296 35906 ft 501 kts 96°
2026-04-30 13:17 38.54896 120.62655 36141 ft 501 kts 96°
2026-04-30 13:17 38.53724 120.69904 36516 ft 502 kts 97°
2026-04-30 13:18 38.52775 120.75756 36811 ft 503 kts 97°
2026-04-30 13:18 38.51345 120.84518 37249 ft 505 kts 98°
2026-04-30 13:18 38.50625 120.88909 37458 ft 505 kts 98°
2026-04-30 13:19 38.49903 120.93298 37662 ft 506 kts 98°
2026-04-30 13:19 38.49179 120.97693 37874 ft 506 kts 98°
2026-04-30 13:19 38.48451 121.02096 38080 ft 507 kts 99°
2026-04-30 13:19 38.47732 121.06434 38295 ft 507 kts 99°
2026-04-30 13:20 38.47001 121.10836 38499 ft 507 kts 99°
2026-04-30 13:20 38.46269 121.15236 38691 ft 507 kts 99°
2026-04-30 13:20 38.45545 121.19643 38836 ft 507 kts 99°
2026-04-30 13:20 38.44828 121.24052 38995 ft 508 kts 99°
2026-04-30 13:21 38.44119 121.28464 39136 ft 508 kts 99°
2026-04-30 13:21 38.43411 121.32877 39274 ft 508 kts 99°
2026-04-30 13:21 38.42700 121.37288 39414 ft 508 kts 99°
2026-04-30 13:22 38.41268 121.46114 39692 ft 508 kts 100°
2026-04-30 13:22 38.40549 121.50526 39814 ft 509 kts 100°
2026-04-30 13:22 38.39109 121.59169 40056 ft 509 kts 100°
2026-04-30 13:23 38.38366 121.63582 40175 ft 509 kts 101°
2026-04-30 13:23 38.36881 121.72397 40416 ft 509 kts 101°
2026-04-30 13:24 38.35393 121.81221 40636 ft 509 kts 101°
2026-04-30 13:24 38.33901 121.90033 40839 ft 510 kts 101°
2026-04-30 13:25 38.32399 121.98867 40980 ft 511 kts 101°
2026-04-30 13:25 38.30888 122.07701 40991 ft 511 kts 101°
2026-04-30 13:26 38.27384 122.28134 40988 ft 510 kts 100°
2026-04-30 13:28 38.21164 122.50216 40988 ft 514 kts 132°
2026-04-30 13:28 38.14523 122.59062 40985 ft 520 kts 136°
2026-04-30 13:29 38.04249 122.72105 40985 ft 524 kts 135°
2026-04-30 13:31 37.91626 122.88476 40986 ft 525 kts 135°
2026-04-30 13:32 37.78833 123.04965 40988 ft 525 kts 135°
2026-04-30 13:33 37.68610 123.18076 40986 ft 525 kts 136°
2026-04-30 13:34 37.60913 123.27913 40987 ft 525 kts 136°
2026-04-30 13:35 37.51554 123.41831 40985 ft 526 kts 128°
2026-04-30 13:36 37.42786 123.56596 40991 ft 526 kts 128°
2026-04-30 13:36 37.36183 123.67636 40991 ft 526 kts 128°
2026-04-30 13:37 37.29563 123.78645 40991 ft 526 kts 128°
2026-04-30 13:38 37.22931 123.89641 40991 ft 526 kts 128°
2026-04-30 13:38 37.19005 123.97381 40991 ft 529 kts 115°
2026-04-30 13:39 37.17094 124.06254 40990 ft 530 kts 95°
2026-04-30 13:40 37.17302 124.20094 40987 ft 532 kts 87°
2026-04-30 13:40 37.17705 124.29358 40988 ft 533 kts 88°
2026-04-30 13:41 37.17978 124.38642 40988 ft 533 kts 89°
2026-04-30 13:41 37.18193 124.47940 40990 ft 533 kts 89°
2026-04-30 13:42 37.18392 124.57237 40989 ft 534 kts 89°
2026-04-30 13:42 37.18689 124.71184 40989 ft 534 kts 89°
2026-04-30 13:43 37.18885 124.80490 40985 ft 534 kts 89°
2026-04-30 13:43 37.19077 124.89815 40984 ft 535 kts 89°
2026-04-30 13:44 37.19257 124.99139 40987 ft 535 kts 90°
2026-04-30 13:44 37.19428 125.08470 40988 ft 535 kts 90°
2026-04-30 13:45 37.19673 125.22479 40981 ft 536 kts 90°
2026-04-30 13:46 37.19828 125.31824 40981 ft 536 kts 90°
2026-04-30 13:46 37.19977 125.41173 40977 ft 536 kts 90°
2026-04-30 13:47 37.20118 125.50530 40979 ft 537 kts 90°
2026-04-30 13:47 37.20254 125.59888 40975 ft 537 kts 91°
2026-04-30 13:48 37.20375 125.69186 40976 ft 537 kts 91°
2026-04-30 13:48 37.20490 125.78552 40975 ft 537 kts 91°
2026-04-30 13:49 37.20605 125.87906 40976 ft 537 kts 91°
2026-04-30 13:49 37.20708 125.97281 40967 ft 537 kts 91°
2026-04-30 13:50 37.20800 126.06410 40960 ft 537 kts 91°
2026-04-30 13:50 37.20931 126.20476 40960 ft 538 kts 92°
2026-04-30 13:51 37.21010 126.29852 40957 ft 537 kts 92°
2026-04-30 13:51 37.21081 126.39230 40955 ft 538 kts 92°
2026-04-30 13:52 37.21145 126.48605 40951 ft 538 kts 92°
2026-04-30 13:52 37.21202 126.57978 40945 ft 538 kts 92°
2026-04-30 13:53 37.21248 126.67357 40935 ft 538 kts 92°
2026-04-30 13:53 37.21287 126.76685 40940 ft 538 kts 93°
2026-04-30 13:54 37.21321 126.86071 40944 ft 538 kts 93°
2026-04-30 13:54 37.22046 126.95445 40950 ft 545 kts 78°
2026-04-30 13:55 37.23253 126.99959 40948 ft 548 kts 67°
2026-04-30 13:55 37.25082 127.04150 40950 ft 550 kts 56°
2026-04-30 13:55 37.29931 127.11593 40953 ft 552 kts 49°
2026-04-30 13:56 37.35085 127.18757 40957 ft 553 kts 48°
2026-04-30 13:56 37.40252 127.25924 40958 ft 553 kts 48°
2026-04-30 13:57 37.45342 127.33191 40948 ft 553 kts 53°
2026-04-30 13:57 37.49071 127.41565 40938 ft 548 kts 73°
2026-04-30 13:58 37.51686 127.55487 40919 ft 545 kts 82°
2026-04-30 13:59 37.53115 127.64869 40917 ft 546 kts 82°
2026-04-30 13:59 37.54557 127.74266 40912 ft 546 kts 82°
2026-04-30 14:00 37.56032 127.83665 40915 ft 547 kts 82°
2026-04-30 14:00 37.58252 127.97770 40905 ft 548 kts 82°
2026-04-30 14:01 37.59722 128.07193 40905 ft 548 kts 82°
2026-04-30 14:01 37.61187 128.16634 40910 ft 549 kts 82°
2026-04-30 14:02 37.62636 128.26030 40907 ft 549 kts 83°
2026-04-30 14:02 37.64083 128.35487 40904 ft 549 kts 83°
2026-04-30 14:03 37.65524 128.44958 40911 ft 550 kts 83°
2026-04-30 14:03 37.66961 128.54448 40912 ft 551 kts 83°
2026-04-30 14:04 37.68394 128.63955 40912 ft 551 kts 83°
2026-04-30 14:04 37.68727 128.73478 40910 ft 538 kts 103°
2026-04-30 14:05 37.66683 128.82324 40916 ft 518 kts 124°
2026-04-30 14:05 37.63148 128.90195 40924 ft 514 kts 128°
2026-04-30 14:06 37.57518 129.01691 40924 ft 514 kts 129°
2026-04-30 14:07 37.51918 129.13215 40917 ft 514 kts 129°
2026-04-30 14:08 37.46336 129.24766 40921 ft 515 kts 129°
2026-04-30 14:08 37.40751 129.36305 40922 ft 515 kts 129°
2026-04-30 14:09 37.37040 129.43935 40922 ft 515 kts 129°
2026-04-30 14:10 37.31430 129.55439 40920 ft 515 kts 130°
2026-04-30 14:10 37.27684 129.63103 40920 ft 515 kts 130°
2026-04-30 14:11 37.23934 129.70756 40921 ft 515 kts 130°
2026-04-30 14:11 37.20179 129.78403 40921 ft 514 kts 130°
2026-04-30 14:12 37.16425 129.86034 40920 ft 514 kts 130°
2026-04-30 14:12 37.12667 129.93658 40911 ft 514 kts 131°
2026-04-30 14:13 37.08899 130.01271 40918 ft 514 kts 131°
2026-04-30 14:13 37.05129 130.08871 40917 ft 514 kts 131°
2026-04-30 14:14 37.01360 130.16458 40915 ft 514 kts 131°
2026-04-30 14:14 36.97582 130.24044 40914 ft 513 kts 132°
2026-04-30 14:15 36.93805 130.31613 40913 ft 513 kts 132°
2026-04-30 14:15 36.90020 130.39182 40912 ft 513 kts 132°
2026-04-30 14:16 36.86236 130.46730 40908 ft 513 kts 132°
2026-04-30 14:16 36.82470 130.54225 40906 ft 513 kts 133°
2026-04-30 14:17 36.78674 130.61764 40901 ft 513 kts 133°
2026-04-30 14:17 36.74876 130.69290 40900 ft 513 kts 133°
2026-04-30 14:18 36.71101 130.76754 40897 ft 513 kts 133°
2026-04-30 14:18 36.65384 130.88028 40891 ft 513 kts 134°
2026-04-30 14:19 36.59658 130.99284 40883 ft 513 kts 134°
2026-04-30 14:20 36.56479 131.05518 40894 ft 513 kts 134°
2026-04-30 14:20 36.50838 131.16550 40887 ft 513 kts 135°
2026-04-30 14:21 36.47005 131.24026 40878 ft 513 kts 135°
2026-04-30 14:22 36.41249 131.35220 40877 ft 512 kts 135°
2026-04-30 14:22 36.37559 131.42830 40874 ft 526 kts 128°
2026-04-30 14:22 36.36118 131.47050 40873 ft 534 kts 123°
2026-04-30 14:23 36.31127 131.64326 40873 ft 539 kts 121°
2026-04-30 14:24 36.27394 131.77453 40877 ft 538 kts 122°
2026-04-30 14:25 36.22336 131.94914 40868 ft 538 kts 122°
2026-04-30 14:26 36.18523 132.07994 40869 ft 539 kts 122°
2026-04-30 14:27 36.14733 132.20947 40865 ft 539 kts 122°
2026-04-30 14:27 36.12188 132.29614 40866 ft 539 kts 122°
2026-04-30 14:28 36.08333 132.42687 40862 ft 540 kts 122°
2026-04-30 14:28 36.05750 132.51409 40862 ft 540 kts 122°
2026-04-30 14:29 36.00595 132.68743 40868 ft 541 kts 122°
2026-04-30 14:31 35.94066 132.90543 40864 ft 542 kts 122°
2026-04-30 14:31 35.90127 133.03616 40862 ft 542 kts 122°
2026-04-30 14:32 35.86233 133.16481 40858 ft 543 kts 122°
2026-04-30 14:33 35.83585 133.25197 40867 ft 543 kts 122°
2026-04-30 14:33 35.79605 133.38248 40862 ft 543 kts 122°
2026-04-30 14:34 35.76941 133.46946 40858 ft 543 kts 122°
2026-04-30 14:34 35.74274 133.55630 40861 ft 543 kts 122°
2026-04-30 14:35 35.70258 133.68661 40859 ft 543 kts 122°
2026-04-30 14:36 35.67619 133.77190 40856 ft 543 kts 122°
2026-04-30 14:36 35.64927 133.85864 40854 ft 543 kts 122°
2026-04-30 14:37 35.62232 133.94524 40854 ft 543 kts 122°
2026-04-30 14:37 35.59545 134.03133 40848 ft 543 kts 122°
2026-04-30 14:38 35.56816 134.11848 40853 ft 543 kts 122°
2026-04-30 14:38 35.54104 134.20485 40855 ft 542 kts 122°
2026-04-30 14:39 35.51403 134.29066 40853 ft 542 kts 122°
2026-04-30 14:39 35.48676 134.37697 40860 ft 543 kts 122°
2026-04-30 14:40 35.44581 134.50606 40876 ft 543 kts 122°
2026-04-30 14:40 35.41838 134.59229 40887 ft 543 kts 122°
2026-04-30 14:41 35.39091 134.67846 40894 ft 542 kts 122°
2026-04-30 14:41 35.36336 134.76456 40900 ft 543 kts 122°
2026-04-30 14:42 35.33574 134.85057 40904 ft 543 kts 122°
2026-04-30 14:42 35.30805 134.93656 40909 ft 543 kts 122°
2026-04-30 14:43 35.28033 135.02255 40918 ft 544 kts 122°
2026-04-30 14:43 35.25246 135.10855 40918 ft 544 kts 122°
2026-04-30 14:44 35.22455 135.19451 40917 ft 544 kts 122°
2026-04-30 14:44 35.19661 135.28030 40926 ft 544 kts 122°
2026-04-30 14:45 35.16861 135.36597 40923 ft 544 kts 122°
2026-04-30 14:45 35.14048 135.45184 40923 ft 545 kts 122°
2026-04-30 14:46 35.11229 135.53768 40930 ft 545 kts 122°
2026-04-30 14:46 35.08402 135.62365 40940 ft 545 kts 122°
2026-04-30 14:47 35.05568 135.70946 40937 ft 545 kts 122°
2026-04-30 14:47 35.02748 135.79479 40948 ft 547 kts 122°
2026-04-30 14:48 35.01590 135.83946 40963 ft 559 kts 111°
2026-04-30 14:48 35.00716 135.88578 40955 ft 561 kts 110°
2026-04-30 14:48 34.99161 135.97926 40956 ft 563 kts 109°
2026-04-30 14:49 34.97676 136.07304 40962 ft 563 kts 109°
2026-04-30 14:49 34.96171 136.16672 40967 ft 563 kts 109°
2026-04-30 14:50 34.93863 136.30715 40981 ft 563 kts 109°
2026-04-30 14:51 34.91535 136.44738 40980 ft 563 kts 109°
2026-04-30 14:52 34.89190 136.58772 40977 ft 564 kts 109°
2026-04-30 14:52 34.86828 136.72810 40968 ft 564 kts 109°
2026-04-30 14:53 34.84447 136.86844 40964 ft 565 kts 109°
2026-04-30 14:54 34.81654 137.05652 40717 ft 561 kts 104°
2026-04-30 14:55 34.80749 137.15037 40250 ft 558 kts 104°
2026-04-30 14:55 34.80278 137.19730 40001 ft 558 kts 104°
2026-04-30 14:55 34.79277 137.29032 39523 ft 558 kts 105°
2026-04-30 14:56 34.78211 137.38456 39051 ft 559 kts 105°
2026-04-30 14:56 34.77142 137.47751 38579 ft 559 kts 105°
2026-04-30 14:57 34.76602 137.52432 38302 ft 559 kts 105°
2026-04-30 14:57 34.75515 137.61799 37756 ft 560 kts 105°
2026-04-30 14:58 34.74460 137.70936 37245 ft 561 kts 104°
2026-04-30 14:58 34.73981 137.75640 36989 ft 563 kts 103°
2026-04-30 14:58 34.73115 137.85121 36504 ft 564 kts 102°
2026-04-30 14:59 34.72247 137.94601 36015 ft 564 kts 103°
2026-04-30 15:00 34.71455 138.08925 35290 ft 571 kts 95°
2026-04-30 15:00 34.71459 138.18589 34827 ft 571 kts 94°
2026-04-30 15:01 34.71513 138.28252 34353 ft 572 kts 94°
2026-04-30 15:01 34.71529 138.31453 34194 ft 572 kts 94°
2026-04-30 15:01 34.71564 138.42772 33591 ft 573 kts 94°
2026-04-30 15:02 34.71572 138.47611 33327 ft 572 kts 94°
2026-04-30 15:02 34.71576 138.52379 33073 ft 571 kts 94°
2026-04-30 15:03 34.71577 138.66834 32319 ft 570 kts 94°
2026-04-30 15:03 34.71568 138.76470 31818 ft 569 kts 94°
2026-04-30 15:04 34.71556 138.86047 31343 ft 564 kts 95°
2026-04-30 15:04 34.71496 139.00279 30636 ft 558 kts 95°
2026-04-30 15:05 34.71417 139.14091 29915 ft 553 kts 95°
2026-04-30 15:06 34.71363 139.23304 29590 ft 532 kts 95°
2026-04-30 15:06 34.71307 139.32074 29342 ft 506 kts 95°
2026-04-30 15:07 34.71256 139.39034 29132 ft 486 kts 95°
2026-04-30 15:07 34.70476 139.46880 28869 ft 448 kts 117°
2026-04-30 15:08 34.67270 139.52703 28623 ft 390 kts 151°
2026-04-30 15:08 34.60530 139.54685 28251 ft 312 kts 202°
2026-04-30 15:09 34.56658 139.52576 27992 ft 302 kts 218°
2026-04-30 15:09 34.53661 139.49128 27732 ft 296 kts 237°
2026-04-30 15:10 34.52094 139.44560 27479 ft 297 kts 257°
2026-04-30 15:11 34.52411 139.34486 26989 ft 301 kts 269°
2026-04-30 15:11 34.52758 139.29429 26745 ft 302 kts 271°
2026-04-30 15:12 34.55468 139.22421 26385 ft 329 kts 306°
2026-04-30 15:13 34.59506 139.19477 26158 ft 357 kts 334°
2026-04-30 15:14 34.69214 139.22852 25713 ft 404 kts 49°
2026-04-30 15:14 34.71350 139.32361 25367 ft 393 kts 96°
2026-04-30 15:16 34.69127 139.47923 24789 ft 353 kts 143°
2026-04-30 15:17 34.60914 139.50033 24331 ft 295 kts 209°
2026-04-30 15:18 34.56469 139.40125 23781 ft 290 kts 268°
2026-04-30 15:19 34.56779 139.32775 23211 ft 291 kts 268°